FW9577 Weather Reports


Display with metric or nautical units.
time (UTC)temp
F
wind
direction
speed
MPH
gust
MPH
rain 1hr
in
rain 24hr
in
rain mn
in
humidity
%
barometer
mb
20260505000058 80 340 1.0 3.0 0.00 0.00 0.00 90 206.0
20260504234540 81 334 2.0 3.0 0.00 0.00 0.00 88 206.0
20260504233054 81 144 1.0 2.0 0.00 0.00 0.00 82 206.0
20260504231536 82 0 0.0 3.0 0.00 0.00 0.00 81 206.0
20260504230044 83 129 2.0 3.0 0.00 0.00 0.00 81 206.0
20260504224544 84 158 1.0 2.0 0.00 0.00 0.00 79 206.0
20260504223043 86 155 2.0 4.0 0.00 0.00 0.00 77 206.0
20260504221539 87 148 3.0 5.0 0.00 0.00 0.00 76 206.0
20260504220036 87 214 3.0 6.0 0.00 0.00 0.00 74 206.0
20260504214534 89 158 3.0 5.0 0.00 0.00 0.00 72 206.0
20260504213045 90 157 3.0 5.0 0.00 0.00 0.00 70 206.0
20260504211541 90 218 2.0 5.0 0.00 0.00 0.00 71 206.0
20260504210040 89 162 3.0 6.0 0.00 0.00 0.00 72 206.0
20260504204535 88 153 3.0 7.0 0.00 0.00 0.00 74 206.0
20260504203036 87 234 3.0 8.0 0.00 0.00 0.00 75 206.0
20260504201544 87 187 6.0 9.0 0.00 0.00 0.00 75 206.0
20260504200042 87 217 5.0 9.0 0.00 0.00 0.00 74 206.0
20260504194540 87 150 5.0 9.0 0.00 0.00 0.00 75 206.0
20260504193036 87 160 5.0 9.0 0.00 0.00 0.00 74 206.0
20260504191559 87 193 5.0 9.0 0.00 0.00 0.00 74 206.0
20260504190048 87 186 5.0 9.0 0.00 0.00 0.00 75 206.0
20260504184546 88 212 6.0 10.0 0.00 0.00 0.00 74 206.0
20260504183041 88 195 5.0 10.0 0.00 0.00 0.00 74 206.0
20260504181539 87 212 6.0 10.0 0.00 0.00 0.00 73 206.0
20260504180035 87 194 5.0 11.0 0.00 0.00 0.00 74 206.0
20260504174546 87 214 7.0 12.0 0.00 0.00 0.00 75 206.0
20260504173041 86 200 8.0 13.0 0.00 0.00 0.00 78 206.0
20260504171548 86 195 10.0 14.0 0.00 0.00 0.00 77 206.0
20260504081541 80 137 13.0 17.0 0.00 0.00 0.00 87 206.0
20260504044543 80 108 14.0 18.0 0.00 0.00 0.00 92 206.0
20260504043050 80 112 14.0 17.0 0.00 0.00 0.00 91 206.0
20260504041542 80 115 12.0 16.0 0.00 0.00 0.00 92 206.0
20260504040042 80 93 12.0 16.0 0.00 0.00 0.00 92 206.0
20260504034536 81 115 14.0 17.0 0.00 0.00 0.00 92 206.0
20260504033037 81 89 13.0 16.0 0.00 0.00 0.00 91 206.0
20260504031545 81 84 11.0 14.0 0.00 0.00 0.00 90 206.0
20260504030044 82 143 5.0 9.0 0.00 0.00 0.00 86 206.0
20260504024539 82 158 6.0 9.0 0.00 0.00 0.00 87 206.0
20260504023037 82 158 4.0 7.0 0.00 0.00 0.00 88 206.0
20260504021547 82 143 3.0 7.0 0.00 0.00 0.00 86 206.0
20260504020042 82 144 4.0 7.0 0.00 0.00 0.00 86 206.0
20260504014546 82 128 5.0 7.0 0.00 0.00 0.00 87 206.0
20260504013051 82 144 4.0 8.0 0.00 0.00 0.00 87 206.0
20260504011539 82 132 7.0 10.0 0.00 0.00 0.00 87 206.0
20260504010057 82 129 6.0 9.0 0.00 0.00 0.00 87 206.0
20260504004555 82 113 6.0 9.0 0.00 0.00 0.00 87 206.0
20260504003042 82 117 6.0 8.0 0.00 0.00 0.00 87 206.0
20260504001541 82 129 5.0 6.0 0.00 0.00 0.00 86 206.0